LNNPK ENNO-ENKJ

Flight info

Callsign LNNPK
Flight time 0h 32m
Altitude 5000
Route INGAR DCT DIXEB DCT BAMIX DCT LUKUL DCT GM618
Aircraft C172/L-SFG/C

Departure

Time 2026-05-06 15:01
Airport Notodden Airport (ENNO)

Arrival

Time 2026-05-06 15:33
Airport Lillestrøm Airfield, Kjeller (ENKJ)
Time Latitude Longitude Altitude Speed Heading
2026-05-06 14:49 59.56498 9.21896 70 ft 0 kts 220°
2026-05-06 14:54 59.56498 9.21895 70 ft 0 kts 219°
2026-05-06 14:55 59.56481 9.21874 66 ft 5 kts 153°
2026-05-06 14:55 59.56449 9.21893 64 ft 6 kts 212°
2026-05-06 14:55 59.56407 9.21839 68 ft 8 kts 213°
2026-05-06 14:55 59.56402 9.21826 70 ft 0 kts 238°
2026-05-06 14:58 59.56389 9.21806 70 ft 8 kts 218°
2026-05-06 14:58 59.56366 9.21697 67 ft 12 kts 303°
2026-05-06 14:58 59.56423 9.21545 71 ft 16 kts 307°
2026-05-06 14:59 59.56492 9.21360 72 ft 18 kts 306°
2026-05-06 14:59 59.56566 9.21203 72 ft 15 kts 317°
2026-05-06 14:59 59.56609 9.21097 69 ft 4 kts 212°
2026-05-06 14:59 59.56601 9.21103 66 ft 0 kts 124°
2026-05-06 15:00 59.56537 9.21269 65 ft 41 kts 126°
2026-05-06 15:00 59.56258 9.22017 114 ft 87 kts 126°
2026-05-06 15:01 59.55877 9.23033 384 ft 96 kts 127°
2026-05-06 15:01 59.55459 9.24069 714 ft 100 kts 130°
2026-05-06 15:01 59.55056 9.25236 1023 ft 106 kts 108°
2026-05-06 15:01 59.55114 9.26632 1397 ft 103 kts 59°
2026-05-06 15:02 59.55424 9.27916 1825 ft 105 kts 55°
2026-05-06 15:02 59.55787 9.29243 2264 ft 117 kts 58°
2026-05-06 15:02 59.56153 9.30687 2733 ft 123 kts 63°
2026-05-06 15:02 59.56491 9.32223 3155 ft 120 kts 63°
2026-05-06 15:03 59.56846 9.33706 3532 ft 118 kts 61°
2026-05-06 15:03 59.57202 9.35160 3904 ft 118 kts 62°
2026-05-06 15:03 59.57553 9.36658 4218 ft 123 kts 62°
2026-05-06 15:03 59.57907 9.38217 4624 ft 125 kts 61°
2026-05-06 15:04 59.58301 9.39800 4834 ft 133 kts 61°
2026-05-06 15:04 59.58714 9.41450 5022 ft 140 kts 60°
2026-05-06 15:04 59.59151 9.43228 5178 ft 147 kts 62°
2026-05-06 15:04 59.59599 9.45044 5305 ft 150 kts 61°
2026-05-06 15:05 59.60036 9.46933 5408 ft 150 kts 65°
2026-05-06 15:05 59.60475 9.48775 5425 ft 150 kts 62°
2026-05-06 15:05 59.60924 9.50631 5425 ft 153 kts 62°
2026-05-06 15:05 59.61378 9.52573 5431 ft 157 kts 62°
2026-05-06 15:06 59.61887 9.54460 5434 ft 154 kts 60°
2026-05-06 15:06 59.62386 9.56320 5429 ft 153 kts 59°
2026-05-06 15:06 59.62900 9.58153 5437 ft 153 kts 59°
2026-05-06 15:06 59.63418 9.59996 5437 ft 153 kts 59°
2026-05-06 15:07 59.63936 9.61846 5434 ft 154 kts 59°
2026-05-06 15:07 59.64455 9.63683 5433 ft 152 kts 59°
2026-05-06 15:07 59.64959 9.65475 5429 ft 141 kts 59°
2026-05-06 15:07 59.65418 9.67120 5419 ft 134 kts 59°
2026-05-06 15:08 59.65858 9.68705 5431 ft 131 kts 59°
2026-05-06 15:08 59.66238 9.70317 5427 ft 130 kts 74°
2026-05-06 15:08 59.66474 9.72028 5434 ft 129 kts 69°
2026-05-06 15:08 59.66697 9.73770 5432 ft 131 kts 76°
2026-05-06 15:09 59.66913 9.75542 5432 ft 132 kts 75°
2026-05-06 15:09 59.67127 9.77328 5446 ft 136 kts 74°
2026-05-06 15:09 59.67374 9.79154 5427 ft 135 kts 72°
2026-05-06 15:09 59.67584 9.80941 5425 ft 132 kts 77°
2026-05-06 15:10 59.67765 9.82709 5437 ft 131 kts 77°
2026-05-06 15:10 59.67796 9.84501 5419 ft 132 kts 106°
2026-05-06 15:10 59.67335 9.86021 5429 ft 129 kts 122°
2026-05-06 15:10 59.66985 9.87648 5440 ft 129 kts 112°
2026-05-06 15:11 59.66735 9.89381 5418 ft 132 kts 93°
2026-05-06 15:11 59.66836 9.91141 5429 ft 130 kts 81°
2026-05-06 15:11 59.66940 9.92914 5429 ft 129 kts 84°
2026-05-06 15:11 59.67026 9.94693 5438 ft 130 kts 84°
2026-05-06 15:12 59.67104 9.96501 5429 ft 133 kts 85°
2026-05-06 15:12 59.67182 9.98316 5440 ft 133 kts 85°
2026-05-06 15:12 59.67257 10.00151 5440 ft 134 kts 85°
2026-05-06 15:12 59.67332 10.01987 5438 ft 133 kts 85°
2026-05-06 15:13 59.67409 10.03806 5452 ft 133 kts 84°
2026-05-06 15:13 59.67483 10.05638 5434 ft 132 kts 85°
2026-05-06 15:13 59.67557 10.07440 5428 ft 130 kts 85°
2026-05-06 15:13 59.67629 10.09216 5438 ft 129 kts 85°
2026-05-06 15:14 59.67702 10.10989 5427 ft 128 kts 85°
2026-05-06 15:14 59.67773 10.12753 5426 ft 128 kts 85°
2026-05-06 15:14 59.67843 10.14492 5428 ft 128 kts 85°
2026-05-06 15:14 59.67914 10.16248 5432 ft 129 kts 85°
2026-05-06 15:15 59.67985 10.18025 5435 ft 130 kts 85°
2026-05-06 15:15 59.68058 10.19836 5445 ft 134 kts 85°
2026-05-06 15:15 59.68131 10.21674 5440 ft 132 kts 85°
2026-05-06 15:15 59.68203 10.23500 5441 ft 133 kts 85°
2026-05-06 15:16 59.68274 10.25285 5445 ft 131 kts 85°
2026-05-06 15:16 59.68346 10.27095 5446 ft 132 kts 85°
2026-05-06 15:16 59.68417 10.28915 5443 ft 132 kts 85°
2026-05-06 15:16 59.68489 10.30734 5440 ft 132 kts 85°
2026-05-06 15:17 59.68559 10.32545 5440 ft 131 kts 85°
2026-05-06 15:17 59.68628 10.34339 5448 ft 131 kts 85°
2026-05-06 15:17 59.68700 10.36166 5439 ft 133 kts 85°
2026-05-06 15:17 59.68779 10.37971 5433 ft 130 kts 81°
2026-05-06 15:18 59.69177 10.39542 5436 ft 127 kts 54°
2026-05-06 15:18 59.69669 10.41048 5444 ft 132 kts 56°
2026-05-06 15:18 59.70140 10.42626 5440 ft 135 kts 58°
2026-05-06 15:18 59.70601 10.44205 5449 ft 131 kts 58°
2026-05-06 15:19 59.71053 10.45767 5437 ft 130 kts 58°
2026-05-06 15:19 59.71497 10.47312 5434 ft 129 kts 58°
2026-05-06 15:19 59.71939 10.48844 5429 ft 128 kts 58°
2026-05-06 15:19 59.72375 10.50355 5439 ft 129 kts 58°
2026-05-06 15:20 59.72820 10.51908 5443 ft 131 kts 58°
2026-05-06 15:20 59.73267 10.53468 5434 ft 129 kts 58°
2026-05-06 15:20 59.73710 10.55012 5435 ft 128 kts 58°
2026-05-06 15:20 59.74151 10.56547 5433 ft 127 kts 58°
2026-05-06 15:21 59.74587 10.58068 5436 ft 127 kts 58°
2026-05-06 15:21 59.75026 10.59600 5439 ft 128 kts 58°
2026-05-06 15:21 59.75443 10.61056 5445 ft 129 kts 58°
2026-05-06 15:21 59.75887 10.62605 5441 ft 132 kts 58°
2026-05-06 15:22 59.76335 10.64181 5443 ft 130 kts 59°
2026-05-06 15:22 59.76780 10.65735 5445 ft 129 kts 58°
2026-05-06 15:22 59.77220 10.67276 5442 ft 129 kts 58°
2026-05-06 15:22 59.77667 10.68846 5447 ft 131 kts 58°
2026-05-06 15:23 59.78049 10.70508 5439 ft 133 kts 71°
2026-05-06 15:23 59.78312 10.72254 5434 ft 131 kts 71°
2026-05-06 15:23 59.78583 10.73975 5441 ft 131 kts 71°
2026-05-06 15:23 59.78855 10.75704 5434 ft 130 kts 71°
2026-05-06 15:24 59.79124 10.77422 5431 ft 129 kts 71°
2026-05-06 15:24 59.79389 10.79118 5437 ft 128 kts 71°
2026-05-06 15:24 59.79653 10.80810 5439 ft 129 kts 71°
2026-05-06 15:24 59.79923 10.82542 5445 ft 133 kts 70°
2026-05-06 15:25 59.80197 10.84285 5454 ft 134 kts 71°
2026-05-06 15:25 59.80472 10.86055 5433 ft 132 kts 71°
2026-05-06 15:25 59.80741 10.87791 5434 ft 130 kts 71°
2026-05-06 15:25 59.81011 10.89521 5434 ft 131 kts 71°
2026-05-06 15:26 59.81279 10.91249 5407 ft 132 kts 71°
2026-05-06 15:26 59.81539 10.92933 5316 ft 124 kts 71°
2026-05-06 15:26 59.81786 10.94525 5221 ft 119 kts 71°
2026-05-06 15:26 59.82028 10.96098 5129 ft 120 kts 71°
2026-05-06 15:27 59.82271 10.97661 5045 ft 117 kts 70°
2026-05-06 15:27 59.82508 10.99186 4961 ft 114 kts 70°
2026-05-06 15:27 59.82844 11.00582 4846 ft 111 kts 43°
2026-05-06 15:27 59.83483 11.01397 4749 ft 108 kts 26°
2026-05-06 15:28 59.84121 11.02175 4636 ft 108 kts 28°
2026-05-06 15:28 59.84751 11.03000 4510 ft 109 kts 30°
2026-05-06 15:28 59.85394 11.03837 4376 ft 114 kts 29°
2026-05-06 15:28 59.86092 11.04639 4238 ft 119 kts 25°
2026-05-06 15:29 59.86831 11.05430 4088 ft 120 kts 24°
2026-05-06 15:29 59.87582 11.06227 3900 ft 123 kts 24°
2026-05-06 15:29 59.88321 11.07074 3715 ft 126 kts 27°
2026-05-06 15:29 59.89075 11.07907 3607 ft 122 kts 25°
2026-05-06 15:30 59.89793 11.08714 3529 ft 117 kts 27°
2026-05-06 15:30 59.90536 11.09344 3589 ft 114 kts 12°
2026-05-06 15:30 59.91311 11.09590 3424 ft 114 kts
2026-05-06 15:30 59.92064 11.09903 3091 ft 109 kts 17°
2026-05-06 15:31 59.92758 11.10346 2792 ft 100 kts
2026-05-06 15:31 59.93432 11.10243 2493 ft 96 kts 348°
2026-05-06 15:31 59.94064 11.10082 2287 ft 87 kts 345°
2026-05-06 15:32 59.95152 11.09045 1607 ft 91 kts 317°
2026-05-06 15:32 59.95578 11.08123 1190 ft 91 kts 314°
2026-05-06 15:32 59.95925 11.07092 821 ft 87 kts 308°
2026-05-06 15:32 59.96235 11.06151 640 ft 77 kts 302°
2026-05-06 15:33 59.96520 11.05260 435 ft 76 kts 301°
2026-05-06 15:33 59.96785 11.04434 357 ft 62 kts 300°
2026-05-06 15:33 59.96968 11.03863 350 ft 29 kts 304°
2026-05-06 15:33 59.96996 11.03766 354 ft 7 kts 126°
2026-05-06 15:34 59.96951 11.03909 357 ft 15 kts 121°
2026-05-06 15:34 59.96886 11.04109 351 ft 19 kts 121°
2026-05-06 15:34 59.96829 11.04293 354 ft 10 kts 117°
2026-05-06 15:34 59.96807 11.04373 353 ft 12 kts 124°
2026-05-06 15:35 59.96779 11.04515 354 ft 9 kts 66°
2026-05-06 15:35 59.96809 11.04603 356 ft 8 kts 52°
2026-05-06 15:35 59.96818 11.04684 356 ft 6 kts 128°
2026-05-06 15:35 59.96798 11.04750 360 ft 5 kts 85°
2026-05-06 15:36 59.96806 11.04770 356 ft 1 kts 28°
2026-05-06 15:36 59.96823 11.04768 358 ft 3 kts 266°
2026-05-06 15:36 59.96818 11.04750 356 ft 0 kts 231°
2026-05-06 15:40 59.96804 11.04746 358 ft 5 kts 153°
2026-05-06 15:40 59.96777 11.04798 356 ft 2 kts 130°
2026-05-06 15:40 59.96771 11.04813 355 ft 1 kts 129°
2026-05-06 15:40 59.96748 11.04799 355 ft 6 kts 242°
2026-05-06 15:41 59.96728 11.04711 356 ft 7 kts 245°
2026-05-06 15:41 59.96688 11.04723 355 ft 10 kts 124°
2026-05-06 15:41 59.96638 11.04858 354 ft 13 kts 122°
2026-05-06 15:41 59.96589 11.05006 354 ft 11 kts 127°
2026-05-06 15:42 59.96590 11.05036 355 ft 0 kts 300°
2026-05-06 15:42 59.96595 11.05021 354 ft 11 kts 300°
2026-05-06 15:43 59.96730 11.04586 357 ft 62 kts 302°
2026-05-06 15:43 59.96989 11.03735 543 ft 76 kts 303°
2026-05-06 15:43 59.97287 11.02834 867 ft 79 kts 300°
2026-05-06 15:43 59.97492 11.01828 1174 ft 84 kts 267°
2026-05-06 15:44 59.97135 11.00941 1334 ft 91 kts 206°
2026-05-06 15:44 59.96563 11.00403 1554 ft 93 kts 209°
2026-05-06 15:44 59.95978 10.99903 1804 ft 92 kts 202°
2026-05-06 15:44 59.95374 10.99462 2015 ft 94 kts 207°
2026-05-06 15:45 59.94684 10.99314 2124 ft 110 kts 168°
2026-05-06 15:45 59.94100 11.00329 2281 ft 121 kts 123°
2026-05-06 15:45 59.93635 11.01751 2429 ft 128 kts 124°
2026-05-06 15:45 59.93160 11.03274 2516 ft 120 kts 121°
2026-05-06 15:46 59.92793 11.04585 2569 ft 102 kts 120°
2026-05-06 15:46 59.92459 11.05817 2422 ft 104 kts 119°
2026-05-06 15:46 59.92376 11.07253 2163 ft 107 kts 75°
2026-05-06 15:46 59.92849 11.08277 1993 ft 99 kts 30°
2026-05-06 15:47 59.93404 11.09036 1845 ft 90 kts 30°
2026-05-06 15:47 59.93875 11.09622 1660 ft 76 kts 23°
2026-05-06 15:47 59.94347 11.09973 1486 ft 74 kts
2026-05-06 15:47 59.94822 11.09684 1258 ft 69 kts 329°
2026-05-06 15:48 59.95172 11.09103 1100 ft 63 kts 311°
2026-05-06 15:48 59.95442 11.08457 1014 ft 60 kts 304°
2026-05-06 15:48 59.95688 11.07770 921 ft 64 kts 301°
2026-05-06 15:48 59.95941 11.07006 776 ft 67 kts 301°
2026-05-06 15:49 59.96203 11.06214 634 ft 68 kts 301°
2026-05-06 15:49 59.96460 11.05438 482 ft 67 kts 300°
2026-05-06 15:49 59.96710 11.04661 363 ft 63 kts 300°
2026-05-06 15:49 59.96906 11.04054 351 ft 45 kts 303°
2026-05-06 15:50 59.97144 11.03308 415 ft 78 kts 300°
2026-05-06 15:50 59.97441 11.02333 698 ft 86 kts 298°
2026-05-06 15:50 59.97760 11.01286 1031 ft 91 kts 298°
2026-05-06 15:50 59.98091 11.00158 1340 ft 98 kts 298°
2026-05-06 15:51 59.98214 10.98837 1651 ft 104 kts 254°
2026-05-06 15:51 59.97688 10.97761 1862 ft 116 kts 212°
2026-05-06 15:51 59.96998 10.96915 2207 ft 118 kts 212°
2026-05-06 15:51 59.96194 10.96547 2417 ft 125 kts 174°
2026-05-06 15:52 59.95478 10.97490 2508 ft 128 kts 129°
2026-05-06 15:52 59.94993 10.98966 2556 ft 123 kts 122°
2026-05-06 15:52 59.94580 11.00362 2595 ft 116 kts 122°
2026-05-06 15:52 59.94157 11.01829 2641 ft 126 kts 121°
2026-05-06 15:53 59.93727 11.03381 2667 ft 126 kts 119°
2026-05-06 15:53 59.93350 11.04816 2606 ft 110 kts 119°
2026-05-06 15:53 59.93162 11.06308 2348 ft 114 kts 86°
2026-05-06 15:53 59.93513 11.07589 2194 ft 107 kts 38°
2026-05-06 15:54 59.94148 11.08335 2045 ft 102 kts 25°
2026-05-06 15:54 59.94730 11.08986 1924 ft 93 kts 26°
2026-05-06 15:54 59.95334 11.09214 1641 ft 89 kts 336°
2026-05-06 15:54 59.95635 11.08246 1225 ft 80 kts 273°
2026-05-06 15:55 59.95844 11.07313 930 ft 69 kts 300°
2026-05-06 15:55 59.96091 11.06546 726 ft 64 kts 301°
2026-05-06 15:55 59.96332 11.05829 565 ft 61 kts 301°
2026-05-06 15:55 59.96564 11.05119 424 ft 61 kts 298°
2026-05-06 15:56 59.96775 11.04453 355 ft 49 kts 302°
2026-05-06 15:56 59.96972 11.03845 374 ft 67 kts 302°
2026-05-06 15:56 59.97261 11.02971 571 ft 83 kts 301°
2026-05-06 15:56 59.97604 11.01959 853 ft 92 kts 302°
2026-05-06 15:57 59.97948 11.00799 1148 ft 102 kts 299°
2026-05-06 15:57 59.98309 10.99499 1424 ft 111 kts 287°
2026-05-06 15:57 59.98115 10.98043 1725 ft 117 kts 228°
2026-05-06 15:57 59.97434 10.97203 1891 ft 115 kts 212°
2026-05-06 15:58 59.96681 10.96899 2099 ft 118 kts 172°
2026-05-06 15:58 59.96098 10.98115 2106 ft 129 kts 120°
2026-05-06 15:58 59.95653 10.99633 2193 ft 126 kts 123°
2026-05-06 15:58 59.95181 11.01105 2227 ft 123 kts 124°
2026-05-06 15:59 59.94747 11.02570 2217 ft 122 kts 120°
2026-05-06 15:59 59.94346 11.04020 2210 ft 120 kts 121°
2026-05-06 15:59 59.93941 11.05438 2240 ft 114 kts 117°
2026-05-06 15:59 59.93712 11.06926 2128 ft 115 kts 87°
2026-05-06 16:00 59.94115 11.08148 1882 ft 104 kts 26°
2026-05-06 16:00 59.94727 11.08754 1683 ft 93 kts 20°
2026-05-06 16:00 59.95326 11.08607 1323 ft 90 kts 327°
2026-05-06 16:00 59.95676 11.07781 1043 ft 69 kts 320°
2026-05-06 16:01 59.95938 11.07011 830 ft 64 kts 303°
2026-05-06 16:01 59.96174 11.06279 675 ft 61 kts 302°
2026-05-06 16:01 59.96408 11.05578 531 ft 61 kts 303°
2026-05-06 16:01 59.96641 11.04873 376 ft 58 kts 302°
2026-05-06 16:02 59.96817 11.04331 361 ft 27 kts 304°
2026-05-06 16:02 59.96835 11.04271 360 ft 7 kts 121°
2026-05-06 16:02 59.96796 11.04410 356 ft 15 kts 123°
2026-05-06 16:02 59.96787 11.04542 358 ft 10 kts 52°
2026-05-06 16:03 59.96821 11.04634 357 ft 8 kts 51°
2026-05-06 16:03 59.96806 11.04713 360 ft 8 kts 122°
2026-05-06 16:03 59.96777 11.04800 357 ft 8 kts 130°
2026-05-06 16:03 59.96757 11.04888 359 ft 7 kts 100°
2026-05-06 16:04 59.96751 11.04920 358 ft 2 kts 318°
2026-05-06 16:04 59.96759 11.04907 357 ft 0 kts 321°